owner,sensor,date,latitude,longitude,vertical_datum,mass_concentration_of_oxygen_in_sea_water,qcFlag 
DISL,ioos:station:DISL:CATA:1,2019-02-01T00:30:00Z,30.3085,-88.1395,2.627,10.72,1111122 
DISL,ioos:station:DISL:CATA:1,2019-02-01T01:30:00Z,30.3085,-88.1395,2.646,10.75,1111122 
DISL,ioos:station:DISL:CATA:1,2019-02-01T02:30:00Z,30.3085,-88.1395,2.641,10.78,1111122 
DISL,ioos:station:DISL:CATA:1,2019-02-01T03:30:00Z,30.3085,-88.1395,2.597,10.72,1111122 
DISL,ioos:station:DISL:CATA:1,2019-02-01T04:30:00Z,30.3085,-88.1395,2.56,10.83,1111122 
DISL,ioos:station:DISL:CATA:1,2019-02-01T05:30:00Z,30.3085,-88.1395,2.497,10.78,1111122 
DISL,ioos:station:DISL:CATA:1,2019-02-01T06:30:00Z,30.3085,-88.1395,2.421,10.74,1111122 
DISL,ioos:station:DISL:CATA:1,2019-02-01T07:30:00Z,30.3085,-88.1395,2.326,10.68,1111122 
DISL,ioos:station:DISL:CATA:1,2019-02-01T08:30:00Z,30.3085,-88.1395,2.253,10.71,1111122 
DISL,ioos:station:DISL:CATA:1,2019-02-01T09:30:00Z,30.3085,-88.1395,2.195,10.71,1111122 
DISL,ioos:station:DISL:CATA:1,2019-02-01T10:30:00Z,30.3085,-88.1395,2.146,10.71,1111122 
DISL,ioos:station:DISL:CATA:1,2019-02-01T11:30:00Z,30.3085,-88.1395,2.1,10.72,1111122 
DISL,ioos:station:DISL:CATA:1,2019-02-01T12:30:00Z,30.3085,-88.1395,2.096,10.75,1111122 
DISL,ioos:station:DISL:CATA:1,2019-02-01T13:30:00Z,30.3085,-88.1395,2.124,10.76,1111122 
DISL,ioos:station:DISL:CATA:1,2019-02-01T14:30:00Z,30.3085,-88.1395,2.17,10.77,1111122 
DISL,ioos:station:DISL:CATA:1,2019-02-01T15:30:00Z,30.3085,-88.1395,2.215,10.78,1111122 
DISL,ioos:station:DISL:CATA:1,2019-02-01T16:30:00Z,30.3085,-88.1395,2.266,10.78,1111122 
DISL,ioos:station:DISL:CATA:1,2019-02-01T17:30:00Z,30.3085,-88.1395,2.343,10.77,1111122 
DISL,ioos:station:DISL:CATA:1,2019-02-01T18:30:00Z,30.3085,-88.1395,2.414,10.76,1111122 
DISL,ioos:station:DISL:CATA:1,2019-02-01T19:30:00Z,30.3085,-88.1395,2.518,10.74,1111122 
DISL,ioos:station:DISL:CATA:1,2019-02-01T20:30:00Z,30.3085,-88.1395,2.549,10.83,1111122 
DISL,ioos:station:DISL:CATA:1,2019-02-01T21:30:00Z,30.3085,-88.1395,2.599,10.81,1111122 
DISL,ioos:station:DISL:CATA:1,2019-02-01T22:30:00Z,30.3085,-88.1395,2.639,10.8,1111122 
DISL,ioos:station:DISL:CATA:1,2019-02-01T23:30:00Z,30.3085,-88.1395,2.708,10.67,1111122 
DISL,ioos:station:DISL:CATA:1,2019-02-02T00:30:00Z,30.3085,-88.1395,2.703,4.68,1111122 
DISL,ioos:station:DISL:CATA:1,2019-02-02T01:30:00Z,30.3085,-88.1395,2.721,3.28,1111122 
DISL,ioos:station:DISL:CATA:1,2019-02-02T02:30:00Z,30.3085,-88.1395,2.724,2.8,1111122 
DISL,ioos:station:DISL:CATA:1,2019-02-02T03:30:00Z,30.3085,-88.1395,2.706,3.47,1111122 
DISL,ioos:station:DISL:CATA:1,2019-02-02T04:30:00Z,30.3085,-88.1395,2.669,2.78,1111122 
DISL,ioos:station:DISL:CATA:1,2019-02-02T05:30:00Z,30.3085,-88.1395,2.604,3.3,1111122 
DISL,ioos:station:DISL:CATA:1,2019-02-02T06:30:00Z,30.3085,-88.1395,2.544,10.33,1111122 
DISL,ioos:station:DISL:CATA:1,2019-02-02T07:30:00Z,30.3085,-88.1395,2.451,10.78,1111122 
DISL,ioos:station:DISL:CATA:1,2019-02-02T08:30:00Z,30.3085,-88.1395,2.361,10.8,1111122 
DISL,ioos:station:DISL:CATA:1,2019-02-02T09:30:00Z,30.3085,-88.1395,2.27,10.8,1111122 
DISL,ioos:station:DISL:CATA:1,2019-02-02T10:30:00Z,30.3085,-88.1395,2.201,10.79,1111122 
DISL,ioos:station:DISL:CATA:1,2019-02-02T11:30:00Z,30.3085,-88.1395,2.165,10.77,1111122 
DISL,ioos:station:DISL:CATA:1,2019-02-02T12:30:00Z,30.3085,-88.1395,2.159,10.76,1111122 
DISL,ioos:station:DISL:CATA:1,2019-02-02T13:30:00Z,30.3085,-88.1395,2.179,10.74,1111122 
DISL,ioos:station:DISL:CATA:1,2019-02-02T14:30:00Z,30.3085,-88.1395,2.205,10.75,1111122 
DISL,ioos:station:DISL:CATA:1,2019-02-02T15:30:00Z,30.3085,-88.1395,2.237,10.77,1111122 
DISL,ioos:station:DISL:CATA:1,2019-02-02T16:30:00Z,30.3085,-88.1395,2.269,10.78,1111122 
DISL,ioos:station:DISL:CATA:1,2019-02-02T17:30:00Z,30.3085,-88.1395,2.306,10.77,1111122 
DISL,ioos:station:DISL:CATA:1,2019-02-02T18:30:00Z,30.3085,-88.1395,2.35,10.75,1111122 
DISL,ioos:station:DISL:CATA:1,2019-02-02T19:30:00Z,30.3085,-88.1395,2.398,10.89,1111122 
DISL,ioos:station:DISL:CATA:1,2019-02-02T20:30:00Z,30.3085,-88.1395,2.457,10.87,1111122 
DISL,ioos:station:DISL:CATA:1,2019-02-02T21:30:00Z,30.3085,-88.1395,2.516,9.43,1111122 
DISL,ioos:station:DISL:CATA:1,2019-02-02T22:30:00Z,30.3085,-88.1395,2.576,7.53,1111122 
DISL,ioos:station:DISL:CATA:1,2019-02-02T23:30:00Z,30.3085,-88.1395,2.624,7.22,1111122 
DISL,ioos:station:DISL:CATA:1,2019-02-03T00:30:00Z,30.3085,-88.1395,2.674,6.28,1111122 
DISL,ioos:station:DISL:CATA:1,2019-02-03T01:30:00Z,30.3085,-88.1395,2.72,5.95,1111122 
DISL,ioos:station:DISL:CATA:1,2019-02-03T02:30:00Z,30.3085,-88.1395,2.729,5.89,1111122 
DISL,ioos:station:DISL:CATA:1,2019-02-03T03:30:00Z,30.3085,-88.1395,2.72,4.74,1111122 
DISL,ioos:station:DISL:CATA:1,2019-02-03T04:30:00Z,30.3085,-88.1395,2.701,4.51,1111122 
DISL,ioos:station:DISL:CATA:1,2019-02-03T05:30:00Z,30.3085,-88.1395,2.652,4.61,1111122 
DISL,ioos:station:DISL:CATA:1,2019-02-03T06:30:00Z,30.3085,-88.1395,2.589,4.27,1111122 
DISL,ioos:station:DISL:CATA:1,2019-02-03T07:30:00Z,30.3085,-88.1395,2.518,8.72,1111122 
DISL,ioos:station:DISL:CATA:1,2019-02-03T08:30:00Z,30.3085,-88.1395,2.42,10.76,1111122 
DISL,ioos:station:DISL:CATA:1,2019-02-03T09:30:00Z,30.3085,-88.1395,2.329,10.71,1111122 
DISL,ioos:station:DISL:CATA:1,2019-02-03T10:30:00Z,30.3085,-88.1395,2.262,10.68,1111122 
DISL,ioos:station:DISL:CATA:1,2019-02-03T11:30:00Z,30.3085,-88.1395,2.221,10.67,1111122 
DISL,ioos:station:DISL:CATA:1,2019-02-03T12:30:00Z,30.3085,-88.1395,2.195,10.65,1111122 
DISL,ioos:station:DISL:CATA:1,2019-02-03T13:30:00Z,30.3085,-88.1395,2.186,10.62,1111122 
DISL,ioos:station:DISL:CATA:1,2019-02-03T14:30:00Z,30.3085,-88.1395,2.201,10.61,1111122 
DISL,ioos:station:DISL:CATA:1,2019-02-03T15:30:00Z,30.3085,-88.1395,2.235,10.62,1111122 
DISL,ioos:station:DISL:CATA:1,2019-02-03T16:30:00Z,30.3085,-88.1395,2.265,10.63,1111122 
DISL,ioos:station:DISL:CATA:1,2019-02-03T17:30:00Z,30.3085,-88.1395,2.307,10.7,1111122 
DISL,ioos:station:DISL:CATA:1,2019-02-03T18:30:00Z,30.3085,-88.1395,2.348,10.73,1111122 
DISL,ioos:station:DISL:CATA:1,2019-02-03T19:30:00Z,30.3085,-88.1395,2.378,10.9,1111122 
DISL,ioos:station:DISL:CATA:1,2019-02-03T20:30:00Z,30.3085,-88.1395,2.418,10.9,1111122 
DISL,ioos:station:DISL:CATA:1,2019-02-03T21:30:00Z,30.3085,-88.1395,2.466,10.88,1111122 
DISL,ioos:station:DISL:CATA:1,2019-02-03T22:30:00Z,30.3085,-88.1395,2.503,7.65,1111122 
DISL,ioos:station:DISL:CATA:1,2019-02-03T23:30:00Z,30.3085,-88.1395,2.543,5.58,1111122 
DISL,ioos:station:DISL:CATA:1,2019-02-04T00:30:00Z,30.3085,-88.1395,2.599,5.11,1111122 
DISL,ioos:station:DISL:CATA:1,2019-02-04T01:30:00Z,30.3085,-88.1395,2.652,5.42,1111122 
DISL,ioos:station:DISL:CATA:1,2019-02-04T02:30:00Z,30.3085,-88.1395,2.694,5.34,1111122 
DISL,ioos:station:DISL:CATA:1,2019-02-04T03:30:00Z,30.3085,-88.1395,2.7,4.63,1111122 
DISL,ioos:station:DISL:CATA:1,2019-02-04T04:30:00Z,30.3085,-88.1395,2.695,4.41,1111122 
DISL,ioos:station:DISL:CATA:1,2019-02-04T05:30:00Z,30.3085,-88.1395,2.664,4.44,1111122 
DISL,ioos:station:DISL:CATA:1,2019-02-04T06:30:00Z,30.3085,-88.1395,2.61,4.3,1111122 
DISL,ioos:station:DISL:CATA:1,2019-02-04T07:30:00Z,30.3085,-88.1395,2.545,4.73,1111122 
DISL,ioos:station:DISL:CATA:1,2019-02-04T08:30:00Z,30.3085,-88.1395,2.466,10.48,1111122 
DISL,ioos:station:DISL:CATA:1,2019-02-04T09:30:00Z,30.3085,-88.1395,2.378,10.74,1111122 
DISL,ioos:station:DISL:CATA:1,2019-02-04T10:30:00Z,30.3085,-88.1395,2.301,10.68,1111122 
DISL,ioos:station:DISL:CATA:1,2019-02-04T11:30:00Z,30.3085,-88.1395,2.244,10.66,1111122 
DISL,ioos:station:DISL:CATA:1,2019-02-04T12:30:00Z,30.3085,-88.1395,2.204,10.67,1111122 
DISL,ioos:station:DISL:CATA:1,2019-02-04T13:30:00Z,30.3085,-88.1395,2.211,10.59,1111122 
DISL,ioos:station:DISL:CATA:1,2019-02-04T14:30:00Z,30.3085,-88.1395,2.242,10.61,1111122 
DISL,ioos:station:DISL:CATA:1,2019-02-04T15:30:00Z,30.3085,-88.1395,2.255,10.61,1111122 
DISL,ioos:station:DISL:CATA:1,2019-02-04T16:30:00Z,30.3085,-88.1395,2.269,10.74,1111122 
DISL,ioos:station:DISL:CATA:1,2019-02-04T17:30:00Z,30.3085,-88.1395,2.305,10.83,1111122 
DISL,ioos:station:DISL:CATA:1,2019-02-04T18:30:00Z,30.3085,-88.1395,2.335,10.82,1111122 
DISL,ioos:station:DISL:CATA:1,2019-02-04T19:30:00Z,30.3085,-88.1395,2.392,10.66,1111122 
DISL,ioos:station:DISL:CATA:1,2019-02-04T20:30:00Z,30.3085,-88.1395,2.422,10.79,1111122 
DISL,ioos:station:DISL:CATA:1,2019-02-04T21:30:00Z,30.3085,-88.1395,2.478,10.73,1111122 
DISL,ioos:station:DISL:CATA:1,2019-02-04T22:30:00Z,30.3085,-88.1395,2.513,10.76,1111122 
DISL,ioos:station:DISL:CATA:1,2019-02-04T23:30:00Z,30.3085,-88.1395,2.554,9.71,1111122 
DISL,ioos:station:DISL:CATA:1,2019-02-05T00:30:00Z,30.3085,-88.1395,2.574,6.03,1111122 
DISL,ioos:station:DISL:CATA:1,2019-02-05T01:30:00Z,30.3085,-88.1395,2.623,4.38,1111122 
DISL,ioos:station:DISL:CATA:1,2019-02-05T02:30:00Z,30.3085,-88.1395,2.678,4.34,1111122 
DISL,ioos:station:DISL:CATA:1,2019-02-05T03:30:00Z,30.3085,-88.1395,2.679,4.52,1111122 
DISL,ioos:station:DISL:CATA:1,2019-02-05T04:30:00Z,30.3085,-88.1395,2.681,4.36,1111122 
DISL,ioos:station:DISL:CATA:1,2019-02-05T05:30:00Z,30.3085,-88.1395,2.655,4.38,1111122 
DISL,ioos:station:DISL:CATA:1,2019-02-05T06:30:00Z,30.3085,-88.1395,2.608,4.2,1111122 
DISL,ioos:station:DISL:CATA:1,2019-02-05T07:30:00Z,30.3085,-88.1395,2.541,4.26,1111122 
DISL,ioos:station:DISL:CATA:1,2019-02-05T08:30:00Z,30.3085,-88.1395,2.487,10.59,1111122 
DISL,ioos:station:DISL:CATA:1,2019-02-05T09:30:00Z,30.3085,-88.1395,2.402,10.69,1111122 
DISL,ioos:station:DISL:CATA:1,2019-02-05T10:30:00Z,30.3085,-88.1395,2.315,10.62,1111122 
DISL,ioos:station:DISL:CATA:1,2019-02-05T11:30:00Z,30.3085,-88.1395,2.257,10.64,1111122 
DISL,ioos:station:DISL:CATA:1,2019-02-05T12:30:00Z,30.3085,-88.1395,2.209,10.56,1111122 
DISL,ioos:station:DISL:CATA:1,2019-02-05T13:30:00Z,30.3085,-88.1395,2.208,10.5,1111122 
DISL,ioos:station:DISL:CATA:1,2019-02-05T14:30:00Z,30.3085,-88.1395,2.235,10.39,1111122 
DISL,ioos:station:DISL:CATA:1,2019-02-05T15:30:00Z,30.3085,-88.1395,2.26,10.3,1111122 
DISL,ioos:station:DISL:CATA:1,2019-02-05T16:30:00Z,30.3085,-88.1395,2.281,10.21,1111122 
DISL,ioos:station:DISL:CATA:1,2019-02-05T17:30:00Z,30.3085,-88.1395,2.306,10.39,1111122 
DISL,ioos:station:DISL:CATA:1,2019-02-05T18:30:00Z,30.3085,-88.1395,2.332,10.47,1111122 
DISL,ioos:station:DISL:CATA:1,2019-02-05T19:30:00Z,30.3085,-88.1395,2.393,10.66,1111122 
DISL,ioos:station:DISL:CATA:1,2019-02-05T20:30:00Z,30.3085,-88.1395,2.441,10.7,1111122 
DISL,ioos:station:DISL:CATA:1,2019-02-05T21:30:00Z,30.3085,-88.1395,2.473,10.54,1111122 
DISL,ioos:station:DISL:CATA:1,2019-02-05T22:30:00Z,30.3085,-88.1395,2.483,10.48,1111122 
DISL,ioos:station:DISL:CATA:1,2019-02-05T23:30:00Z,30.3085,-88.1395,2.535,10.45,1111122 
DISL,ioos:station:DISL:CATA:1,2019-02-06T00:30:00Z,30.3085,-88.1395,2.566,10.42,1111122 
DISL,ioos:station:DISL:CATA:1,2019-02-06T01:30:00Z,30.3085,-88.1395,2.592,5.64,1111122 
DISL,ioos:station:DISL:CATA:1,2019-02-06T02:30:00Z,30.3085,-88.1395,2.618,4.48,1111122 
DISL,ioos:station:DISL:CATA:1,2019-02-06T03:30:00Z,30.3085,-88.1395,2.644,4.61,1111122 
DISL,ioos:station:DISL:CATA:1,2019-02-06T04:30:00Z,30.3085,-88.1395,2.646,4.69,1111122 
DISL,ioos:station:DISL:CATA:1,2019-02-06T05:30:00Z,30.3085,-88.1395,2.638,4.55,1111122 
DISL,ioos:station:DISL:CATA:1,2019-02-06T06:30:00Z,30.3085,-88.1395,2.607,4.34,1111122 
DISL,ioos:station:DISL:CATA:1,2019-02-06T07:30:00Z,30.3085,-88.1395,2.565,4.24,1111122 
DISL,ioos:station:DISL:CATA:1,2019-02-06T08:30:00Z,30.3085,-88.1395,2.496,4.6,1111122 
DISL,ioos:station:DISL:CATA:1,2019-02-06T09:30:00Z,30.3085,-88.1395,2.438,10.32,1111122 
DISL,ioos:station:DISL:CATA:1,2019-02-06T10:30:00Z,30.3085,-88.1395,2.354,10.37,1111122 
DISL,ioos:station:DISL:CATA:1,2019-02-06T11:30:00Z,30.3085,-88.1395,2.28,10.34,1111122 
DISL,ioos:station:DISL:CATA:1,2019-02-06T12:30:00Z,30.3085,-88.1395,2.231,10.34,1111122 
DISL,ioos:station:DISL:CATA:1,2019-02-06T13:30:00Z,30.3085,-88.1395,2.214,10.36,1111122 
DISL,ioos:station:DISL:CATA:1,2019-02-06T14:30:00Z,30.3085,-88.1395,2.238,9.94,1111122 
DISL,ioos:station:DISL:CATA:1,2019-02-06T15:30:00Z,30.3085,-88.1395,2.261,9.84,1111122 
DISL,ioos:station:DISL:CATA:1,2019-02-06T16:30:00Z,30.3085,-88.1395,2.276,10.02,1111122 
DISL,ioos:station:DISL:CATA:1,2019-02-06T17:30:00Z,30.3085,-88.1395,2.284,10.24,1111122 
DISL,ioos:station:DISL:CATA:1,2019-02-06T18:30:00Z,30.3085,-88.1395,2.323,9.97,1111122 
DISL,ioos:station:DISL:CATA:1,2019-02-06T19:30:00Z,30.3085,-88.1395,2.36,10.48,1111122 
DISL,ioos:station:DISL:CATA:1,2019-02-06T20:30:00Z,30.3085,-88.1395,2.396,10.62,1111122 
DISL,ioos:station:DISL:CATA:1,2019-02-06T22:30:00Z,30.3085,-88.1395,2.44,10.63,1111122 
DISL,ioos:station:DISL:CATA:1,2019-02-06T23:30:00Z,30.3085,-88.1395,2.439,10.51,1111122 
DISL,ioos:station:DISL:CATA:1,2019-02-07T00:30:00Z,30.3085,-88.1395,2.468,8.14,1111122 
DISL,ioos:station:DISL:CATA:1,2019-02-07T01:30:00Z,30.3085,-88.1395,2.515,5.35,1111122 
DISL,ioos:station:DISL:CATA:1,2019-02-07T02:30:00Z,30.3085,-88.1395,2.55,4.6,1111122 
DISL,ioos:station:DISL:CATA:1,2019-02-07T03:30:00Z,30.3085,-88.1395,2.577,5.4,1111122 
DISL,ioos:station:DISL:CATA:1,2019-02-07T04:30:00Z,30.3085,-88.1395,2.597,4.69,1111122 
DISL,ioos:station:DISL:CATA:1,2019-02-07T05:30:00Z,30.3085,-88.1395,2.618,4.66,1111122 
DISL,ioos:station:DISL:CATA:1,2019-02-07T06:30:00Z,30.3085,-88.1395,2.599,4.76,1111122 
DISL,ioos:station:DISL:CATA:1,2019-02-07T07:30:00Z,30.3085,-88.1395,2.564,4.82,1111122 
DISL,ioos:station:DISL:CATA:1,2019-02-07T08:30:00Z,30.3085,-88.1395,2.508,4.78,1111122 
DISL,ioos:station:DISL:CATA:1,2019-02-07T09:30:00Z,30.3085,-88.1395,2.467,8.92,1111122 
DISL,ioos:station:DISL:CATA:1,2019-02-07T10:30:00Z,30.3085,-88.1395,2.379,10.22,1111122 
DISL,ioos:station:DISL:CATA:1,2019-02-07T11:30:00Z,30.3085,-88.1395,2.31,10.03,1111122 
DISL,ioos:station:DISL:CATA:1,2019-02-07T12:30:00Z,30.3085,-88.1395,2.246,10.2,1111122 
DISL,ioos:station:DISL:CATA:1,2019-02-07T13:30:00Z,30.3085,-88.1395,2.218,10.04,1111122 
DISL,ioos:station:DISL:CATA:1,2019-02-07T14:30:00Z,30.3085,-88.1395,2.221,10.03,1111122 
DISL,ioos:station:DISL:CATA:1,2019-02-07T15:30:00Z,30.3085,-88.1395,2.253,9.93,1111122 
DISL,ioos:station:DISL:CATA:1,2019-02-07T16:30:00Z,30.3085,-88.1395,2.268,9.96,1111122 
DISL,ioos:station:DISL:CATA:1,2019-02-07T17:30:00Z,30.3085,-88.1395,2.296,10.08,1111122 
DISL,ioos:station:DISL:CATA:1,2019-02-07T18:30:00Z,30.3085,-88.1395,2.307,10.27,1111122 
DISL,ioos:station:DISL:CATA:1,2019-02-07T19:30:00Z,30.3085,-88.1395,2.334,10.31,1111122 
DISL,ioos:station:DISL:CATA:1,2019-02-07T20:30:00Z,30.3085,-88.1395,2.356,10.4,1111122 
DISL,ioos:station:DISL:CATA:1,2019-02-07T21:30:00Z,30.3085,-88.1395,2.366,10.45,1111122 
DISL,ioos:station:DISL:CATA:1,2019-02-07T22:30:00Z,30.3085,-88.1395,2.384,10.5,1111122 
DISL,ioos:station:DISL:CATA:1,2019-02-07T23:30:00Z,30.3085,-88.1395,2.412,10.5,1111122 
DISL,ioos:station:DISL:CATA:1,2019-02-08T00:30:00Z,30.3085,-88.1395,2.446,10.17,1111122 
DISL,ioos:station:DISL:CATA:1,2019-02-08T01:30:00Z,30.3085,-88.1395,2.457,5.71,1111122 
DISL,ioos:station:DISL:CATA:1,2019-02-08T02:30:00Z,30.3085,-88.1395,2.492,5.91,1111122 
DISL,ioos:station:DISL:CATA:1,2019-02-08T03:30:00Z,30.3085,-88.1395,2.542,7.25,1111122 
DISL,ioos:station:DISL:CATA:1,2019-02-08T04:30:00Z,30.3085,-88.1395,2.581,6.81,1111122 
DISL,ioos:station:DISL:CATA:1,2019-02-08T05:30:00Z,30.3085,-88.1395,2.603,6.41,1111122 
DISL,ioos:station:DISL:CATA:1,2019-02-08T06:30:00Z,30.3085,-88.1395,2.6,6.31,1111122 
DISL,ioos:station:DISL:CATA:1,2019-02-08T07:30:00Z,30.3085,-88.1395,2.602,5.48,1111122 
DISL,ioos:station:DISL:CATA:1,2019-02-08T08:30:00Z,30.3085,-88.1395,2.566,5.12,1111122 
DISL,ioos:station:DISL:CATA:1,2019-02-08T09:30:00Z,30.3085,-88.1395,2.456,8.5,1111122 
DISL,ioos:station:DISL:CATA:1,2019-02-08T10:30:00Z,30.3085,-88.1395,2.356,9.19,1111122 
DISL,ioos:station:DISL:CATA:1,2019-02-08T11:30:00Z,30.3085,-88.1395,2.248,8.89,1111122 
DISL,ioos:station:DISL:CATA:1,2019-02-08T12:30:00Z,30.3085,-88.1395,2.175,9.03,1111122 
DISL,ioos:station:DISL:CATA:1,2019-02-08T13:30:00Z,30.3085,-88.1395,2.136,9.0,1111122 
DISL,ioos:station:DISL:CATA:1,2019-02-08T14:30:00Z,30.3085,-88.1395,2.109,9.21,1111122 
DISL,ioos:station:DISL:CATA:1,2019-02-08T15:30:00Z,30.3085,-88.1395,2.103,9.36,1111122 
DISL,ioos:station:DISL:CATA:1,2019-02-08T16:30:00Z,30.3085,-88.1395,2.086,9.46,1111122 
DISL,ioos:station:DISL:CATA:1,2019-02-08T17:30:00Z,30.3085,-88.1395,2.077,9.54,1111122 
DISL,ioos:station:DISL:CATA:1,2019-02-08T18:30:00Z,30.3085,-88.1395,2.058,9.58,1111122 
DISL,ioos:station:DISL:CATA:1,2019-02-08T19:30:00Z,30.3085,-88.1395,2.076,9.66,1111122 
DISL,ioos:station:DISL:CATA:1,2019-02-08T20:30:00Z,30.3085,-88.1395,2.099,9.73,1111122 
DISL,ioos:station:DISL:CATA:1,2019-02-08T21:30:00Z,30.3085,-88.1395,2.127,9.89,1111122 
DISL,ioos:station:DISL:CATA:1,2019-02-08T22:30:00Z,30.3085,-88.1395,2.155,10.16,1111122 
DISL,ioos:station:DISL:CATA:1,2019-02-08T23:30:00Z,30.3085,-88.1395,2.19,10.23,1111122 
DISL,ioos:station:DISL:CATA:1,2019-02-09T00:30:00Z,30.3085,-88.1395,2.204,10.02,1111122 
DISL,ioos:station:DISL:CATA:1,2019-02-09T01:30:00Z,30.3085,-88.1395,2.218,9.97,1111122 
DISL,ioos:station:DISL:CATA:1,2019-02-09T02:30:00Z,30.3085,-88.1395,2.212,9.85,1111122 
DISL,ioos:station:DISL:CATA:1,2019-02-09T03:30:00Z,30.3085,-88.1395,2.209,9.85,1111122 
DISL,ioos:station:DISL:CATA:1,2019-02-09T04:30:00Z,30.3085,-88.1395,2.216,9.88,1111122 
DISL,ioos:station:DISL:CATA:1,2019-02-09T05:30:00Z,30.3085,-88.1395,2.223,9.97,1111122 
DISL,ioos:station:DISL:CATA:1,2019-02-09T06:30:00Z,30.3085,-88.1395,2.236,10.01,1111122 
DISL,ioos:station:DISL:CATA:1,2019-02-09T07:30:00Z,30.3085,-88.1395,2.204,10.09,1111122 
DISL,ioos:station:DISL:CATA:1,2019-02-09T08:30:00Z,30.3085,-88.1395,2.21,10.29,1111122 
DISL,ioos:station:DISL:CATA:1,2019-02-09T09:30:00Z,30.3085,-88.1395,2.194,10.34,1111122 
DISL,ioos:station:DISL:CATA:1,2019-02-09T10:30:00Z,30.3085,-88.1395,2.211,10.49,1111122 
DISL,ioos:station:DISL:CATA:1,2019-02-09T11:30:00Z,30.3085,-88.1395,2.175,10.65,1111122 
DISL,ioos:station:DISL:CATA:1,2019-02-09T12:30:00Z,30.3085,-88.1395,2.128,10.75,1111122 
DISL,ioos:station:DISL:CATA:1,2019-02-09T13:30:00Z,30.3085,-88.1395,2.118,10.6,1111122 
DISL,ioos:station:DISL:CATA:1,2019-02-09T14:30:00Z,30.3085,-88.1395,2.133,10.54,1111122 
DISL,ioos:station:DISL:CATA:1,2019-02-09T15:30:00Z,30.3085,-88.1395,2.155,10.63,1111122 
DISL,ioos:station:DISL:CATA:1,2019-02-09T16:30:00Z,30.3085,-88.1395,2.147,10.7,1111122 
DISL,ioos:station:DISL:CATA:1,2019-02-09T17:30:00Z,30.3085,-88.1395,2.146,10.66,1111122 
DISL,ioos:station:DISL:CATA:1,2019-02-09T18:30:00Z,30.3085,-88.1395,2.161,10.59,1111122 
DISL,ioos:station:DISL:CATA:1,2019-02-09T19:30:00Z,30.3085,-88.1395,2.222,10.61,1111122 
DISL,ioos:station:DISL:CATA:1,2019-02-09T20:30:00Z,30.3085,-88.1395,2.275,10.67,1111122 
DISL,ioos:station:DISL:CATA:1,2019-02-09T21:30:00Z,30.3085,-88.1395,2.317,10.77,1111122 
DISL,ioos:station:DISL:CATA:1,2019-02-09T22:30:00Z,30.3085,-88.1395,2.291,10.94,1111122 
DISL,ioos:station:DISL:CATA:1,2019-02-09T23:30:00Z,30.3085,-88.1395,2.284,11.2,1111122 
DISL,ioos:station:DISL:CATA:1,2019-02-10T00:30:00Z,30.3085,-88.1395,2.286,11.38,1111122 
DISL,ioos:station:DISL:CATA:1,2019-02-10T01:30:00Z,30.3085,-88.1395,2.296,10.88,1111122 
DISL,ioos:station:DISL:CATA:1,2019-02-10T02:30:00Z,30.3085,-88.1395,2.3,10.6,1111122 
DISL,ioos:station:DISL:CATA:1,2019-02-10T03:30:00Z,30.3085,-88.1395,2.339,10.56,1111122 
DISL,ioos:station:DISL:CATA:1,2019-02-10T04:30:00Z,30.3085,-88.1395,2.321,10.55,1111122 
DISL,ioos:station:DISL:CATA:1,2019-02-10T05:30:00Z,30.3085,-88.1395,2.311,10.8,1111122 
DISL,ioos:station:DISL:CATA:1,2019-02-10T06:30:00Z,30.3085,-88.1395,2.299,10.89,1111122 
DISL,ioos:station:DISL:CATA:1,2019-02-10T07:30:00Z,30.3085,-88.1395,2.301,10.88,1111122 
DISL,ioos:station:DISL:CATA:1,2019-02-10T08:30:00Z,30.3085,-88.1395,2.308,10.76,1111122 
DISL,ioos:station:DISL:CATA:1,2019-02-10T09:30:00Z,30.3085,-88.1395,2.349,10.71,1111122 
DISL,ioos:station:DISL:CATA:1,2019-02-10T10:30:00Z,30.3085,-88.1395,2.36,10.61,1111122 
DISL,ioos:station:DISL:CATA:1,2019-02-10T11:30:00Z,30.3085,-88.1395,2.329,10.62,1111122 
DISL,ioos:station:DISL:CATA:1,2019-02-10T12:30:00Z,30.3085,-88.1395,2.29,10.62,1111122 
DISL,ioos:station:DISL:CATA:1,2019-02-10T13:30:00Z,30.3085,-88.1395,2.247,10.49,1111122 
DISL,ioos:station:DISL:CATA:1,2019-02-10T14:30:00Z,30.3085,-88.1395,2.28,10.43,1111122 
DISL,ioos:station:DISL:CATA:1,2019-02-10T15:30:00Z,30.3085,-88.1395,2.314,10.45,1111122 
DISL,ioos:station:DISL:CATA:1,2019-02-10T16:30:00Z,30.3085,-88.1395,2.338,10.46,1111122 
DISL,ioos:station:DISL:CATA:1,2019-02-10T17:30:00Z,30.3085,-88.1395,2.363,10.42,1111122 
DISL,ioos:station:DISL:CATA:1,2019-02-10T18:30:00Z,30.3085,-88.1395,2.378,10.42,1111122 
DISL,ioos:station:DISL:CATA:1,2019-02-10T19:30:00Z,30.3085,-88.1395,2.395,10.4,1111122 
DISL,ioos:station:DISL:CATA:1,2019-02-10T20:30:00Z,30.3085,-88.1395,2.404,10.41,1111122 
DISL,ioos:station:DISL:CATA:1,2019-02-10T21:30:00Z,30.3085,-88.1395,2.412,10.39,1111122 
DISL,ioos:station:DISL:CATA:1,2019-02-10T22:30:00Z,30.3085,-88.1395,2.43,10.41,1111122 
DISL,ioos:station:DISL:CATA:1,2019-02-10T23:30:00Z,30.3085,-88.1395,2.436,10.41,1111122 
DISL,ioos:station:DISL:CATA:1,2019-02-11T00:30:00Z,30.3085,-88.1395,2.43,10.32,1111122 
DISL,ioos:station:DISL:CATA:1,2019-02-11T01:30:00Z,30.3085,-88.1395,2.409,10.36,1111122 
DISL,ioos:station:DISL:CATA:1,2019-02-11T02:30:00Z,30.3085,-88.1395,2.391,10.39,1111122 
DISL,ioos:station:DISL:CATA:1,2019-02-11T03:30:00Z,30.3085,-88.1395,2.4,10.37,1111122 
DISL,ioos:station:DISL:CATA:1,2019-02-11T04:30:00Z,30.3085,-88.1395,2.429,10.37,1111122 
DISL,ioos:station:DISL:CATA:1,2019-02-11T06:00:00Z,30.3085,-88.1395,2.432,10.37,1111122 
DISL,ioos:station:DISL:CATA:1,2019-02-11T06:30:00Z,30.3085,-88.1395,2.416,10.38,1111122 
DISL,ioos:station:DISL:CATA:1,2019-02-11T07:30:00Z,30.3085,-88.1395,2.413,10.14,1111122 
DISL,ioos:station:DISL:CATA:1,2019-02-11T08:30:00Z,30.3085,-88.1395,2.383,7.45,1111122 
DISL,ioos:station:DISL:CATA:1,2019-02-11T09:30:00Z,30.3085,-88.1395,2.373,8.75,1111122 
DISL,ioos:station:DISL:CATA:1,2019-02-11T10:30:00Z,30.3085,-88.1395,2.368,9.76,1111122 
DISL,ioos:station:DISL:CATA:1,2019-02-11T11:30:00Z,30.3085,-88.1395,2.371,10.32,1111122 
DISL,ioos:station:DISL:CATA:1,2019-02-11T12:30:00Z,30.3085,-88.1395,2.363,10.33,1111122 
DISL,ioos:station:DISL:CATA:1,2019-02-11T13:30:00Z,30.3085,-88.1395,2.37,10.29,1111122 
DISL,ioos:station:DISL:CATA:1,2019-02-11T14:30:00Z,30.3085,-88.1395,2.391,10.25,1111122 
DISL,ioos:station:DISL:CATA:1,2019-02-11T15:30:00Z,30.3085,-88.1395,2.407,10.32,1111122 
DISL,ioos:station:DISL:CATA:1,2019-02-11T16:30:00Z,30.3085,-88.1395,2.43,10.35,1111122 
DISL,ioos:station:DISL:CATA:1,2019-02-11T17:30:00Z,30.3085,-88.1395,2.452,9.46,1111122 
DISL,ioos:station:DISL:CATA:1,2019-02-11T18:30:00Z,30.3085,-88.1395,2.474,9.04,1111122 
DISL,ioos:station:DISL:CATA:1,2019-02-11T19:30:00Z,30.3085,-88.1395,2.525,9.04,1111122 
DISL,ioos:station:DISL:CATA:1,2019-02-11T20:30:00Z,30.3085,-88.1395,2.508,8.0,1111122 
DISL,ioos:station:DISL:CATA:1,2019-02-11T21:30:00Z,30.3085,-88.1395,2.499,4.25,1111122 
DISL,ioos:station:DISL:CATA:1,2019-02-11T22:30:00Z,30.3085,-88.1395,2.517,4.21,1111122 
DISL,ioos:station:DISL:CATA:1,2019-02-11T23:30:00Z,30.3085,-88.1395,2.481,3.95,1111122 
DISL,ioos:station:DISL:CATA:1,2019-02-12T00:30:00Z,30.3085,-88.1395,2.486,6.73,1111122 
DISL,ioos:station:DISL:CATA:1,2019-02-12T01:30:00Z,30.3085,-88.1395,2.452,8.74,1111122 
DISL,ioos:station:DISL:CATA:1,2019-02-12T02:30:00Z,30.3085,-88.1395,2.405,9.85,1111122 
DISL,ioos:station:DISL:CATA:1,2019-02-12T03:30:00Z,30.3085,-88.1395,2.387,9.99,1111122 
DISL,ioos:station:DISL:CATA:1,2019-02-12T04:30:00Z,30.3085,-88.1395,2.39,10.03,1111122 
DISL,ioos:station:DISL:CATA:1,2019-02-12T05:30:00Z,30.3085,-88.1395,2.391,9.99,1111122 
DISL,ioos:station:DISL:CATA:1,2019-02-12T06:30:00Z,30.3085,-88.1395,2.408,9.98,1111122 